User: anonymous   Login
Location: Fort Wayne
(41.1310°N, 85.1290°W)
Time: 14:02:55
(UTC-04:00)
Language:

Cosmos 1953 - Orbit

View from above orbital plane
View from above orbital plane
View from above satellite
View from above satellite

Ground track
Ground track

The orbit data is extracted from the following two-line orbital elements,

1 19210U 88050A   14296.10707635  .00005874  00000-0  44067-3 0  5483
2 19210 082.5194 250.5795 0012906 324.2582 035.7779 15.02425665432295
Epoch (UTC): 23 October 2014 02:34:11
Eccentricity: 0.0012906
inclination: 82.5194°
perigee height: 550 km
apogee height: 568 km
right ascension of ascending node: 250.5795°
argument of perigee: 324.2582°
revolutions per day: 15.02425665
mean anomaly at epoch: 35.7779°
orbit number at epoch: 43229

The dashed part of the orbit path shows where the satellite is in the earth's shadow,  

DLR